21-01-2023, 00:00:08,    344,    0.0,   -1.4,   0.00,   0.00, 1022.9,   98.2, -999.0
21-01-2023, 00:00:18,    343,    0.0,   -1.4,   0.00,   0.00, 1022.9,   98.7, -999.0
21-01-2023, 00:00:28,    343,    0.0,   -1.4,   0.00,   0.00, 1022.9,   98.6, -999.0
21-01-2023, 00:00:38,    343,    0.0,   -1.4,   0.00,   0.00, 1022.9,   98.6, -999.0
21-01-2023, 00:00:48,    344,    0.0,   -1.4,   0.00,   0.00, 1022.9,   98.6, -999.0
21-01-2023, 00:00:58,    343,    0.0,   -1.5,   0.00,   0.00, 1022.9,   98.7, -999.0
21-01-2023, 00:01:08,    343,    0.0,   -1.4,   0.00,   0.00, 1022.9,   98.6, -999.0
21-01-2023, 00:01:18,    343,    0.0,   -1.4,   0.00,   0.00, 1022.9,   98.7, -999.0
21-01-2023, 00:01:28,    343,    0.0,   -1.3,   0.00,   0.00, 1022.9,   98.6, -999.0
21-01-2023, 00:01:38,    344,    0.0,   -1.4,   0.00,   0.00, 1022.9,   98.7, -999.0
21-01-2023, 00:01:48,    344,    0.0,   -1.4,   0.00,   0.00, 1022.9,   98.5, -999.0
21-01-2023, 00:01:58,    344,    0.0,   -1.4,   0.00,   0.00, 1022.9,   98.6, -999.0
21-01-2023, 00:02:08,    344,    0.0,   -1.4,   0.00,   0.00, 1022.9,   98.7, -999.0
21-01-2023, 00:02:18,    344,    0.0,   -1.4,   0.00,   0.00, 1022.9,   98.5, -999.0
21-01-2023, 00:02:28,    344,    0.0,   -1.4,   0.00,   0.00, 1022.9,   98.6, -999.0
21-01-2023, 00:02:38,    343,    0.0,   -1.3,   0.00,   0.00, 1022.9,   98.6, -999.0
21-01-2023, 00:02:48,    344,    0.0,   -1.3,   0.00,   0.00, 1022.9,   98.6, -999.0
21-01-2023, 00:02:58,    344,    0.0,   -1.3,   0.00,   0.00, 1022.9,   98.4, -999.0
21-01-2023, 00:03:08,    343,    0.0,   -1.3,   0.00,   0.00, 1022.9,   97.8, -999.0
21-01-2023, 00:03:18,    343,    0.0,   -1.4,   0.00,   0.00, 1022.9,   97.3, -999.0
21-01-2023, 00:03:28,    344,    0.0,   -1.4,   0.00,   0.00, 1022.9,   96.8, -999.0
21-01-2023, 00:03:38,    344,    0.0,   -1.3,   0.00,   0.00, 1022.9,   96.5, -999.0
21-01-2023, 00:03:48,    344,    0.0,   -1.4,   0.00,   0.00, 1022.9,   96.3, -999.0
21-01-2023, 00:03:58,    344,    0.0,   -1.4,   0.00,   0.00, 1022.9,   96.1, -999.0
21-01-2023, 00:04:08,    344,    0.0,   -1.5,   0.00,   0.00, 1022.9,   95.7, -999.0
21-01-2023, 00:04:18,    344,    0.0,   -1.4,   0.00,   0.00, 1022.9,   95.4, -999.0
21-01-2023, 00:04:28,    344,    0.0,   -1.4,   0.00,   0.00, 1022.9,   95.7, -999.0
21-01-2023, 00:04:38,    344,    0.0,   -1.4,   0.00,   0.00, 1022.9,   96.3, -999.0
21-01-2023, 00:04:48,    343,    0.0,   -1.4,   0.00,   0.00, 1022.9,   96.5, -999.0
21-01-2023, 00:04:58,    344,    0.0,   -1.3,   0.00,   0.00, 1022.9,   96.7, -999.0
21-01-2023, 00:05:08,    345,    0.0,   -1.4,   0.00,   0.00, 1022.9,   97.0, -999.0
21-01-2023, 00:05:18,    343,    0.0,   -1.3,   0.00,   0.00, 1022.9,   97.3, -999.0
21-01-2023, 00:05:28,    343,    0.0,   -1.3,   0.00,   0.00, 1022.9,   97.5, -999.0
21-01-2023, 00:05:38,    344,    0.0,   -1.3,   0.00,   0.00, 1022.9,   97.3, -999.0
21-01-2023, 00:05:48,    344,    0.0,   -1.4,   0.00,   0.00, 1022.9,   97.2, -999.0
21-01-2023, 00:05:58,    344,    0.0,   -1.4,   0.00,   0.00, 1022.9,   96.7, -999.0
21-01-2023, 00:06:08,    344,    0.0,   -1.3,   0.00,   0.00, 1022.9,   96.1, -999.0
21-01-2023, 00:06:18,    344,    0.0,   -1.4,   0.00,   0.00, 1022.9,   95.4, -999.0
21-01-2023, 00:06:28,    344,    0.0,   -1.4,   0.00,   0.00, 1022.9,   94.7, -999.0
21-01-2023, 00:06:38,    343,    0.0,   -1.4,   0.00,   0.00, 1022.9,   94.2, -999.0
21-01-2023, 00:06:48,    344,    0.0,   -1.4,   0.00,   0.00, 1022.9,   94.4, -999.0
21-01-2023, 00:06:57,    344,    0.0,   -1.5,   0.00,   0.00, 1022.9,   95.5, -999.0
21-01-2023, 00:07:08,    344,    0.0,   -1.3,   0.00,   0.00, 1022.9,   96.1, -999.0
21-01-2023, 00:07:19,    344,    0.0,   -1.4,   0.00,   0.00, 1022.9,   96.1, -999.0
21-01-2023, 00:07:28,    343,    0.0,   -1.4,   0.00,   0.00, 1022.9,   96.1, -999.0
21-01-2023, 00:07:37,    343,    0.0,   -1.3,   0.00,   0.00, 1022.9,   95.9, -999.0
21-01-2023, 00:07:47,    343,    0.0,   -1.3,   0.00,   0.00, 1022.9,   95.7, -999.0
21-01-2023, 00:07:58,    344,    0.0,   -1.3,   0.00,   0.00, 1022.9,   96.0, -999.0
21-01-2023, 00:08:07,    344,    0.0,   -1.3,   0.00,   0.00, 1022.9,   96.0, -999.0
21-01-2023, 00:08:17,    344,    0.0,   -1.3,   0.00,   0.00, 1022.9,   96.1, -999.0
21-01-2023, 00:08:28,    343,    0.0,   -1.3,   0.00,   0.00, 1022.9,   96.3, -999.0
21-01-2023, 00:08:38,    343,    0.0,   -1.3,   0.00,   0.00, 1022.9,   96.8, -999.0
21-01-2023, 00:08:47,    344,    0.0,   -1.3,   0.00,   0.00, 1022.9,   97.1, -999.0
21-01-2023, 00:08:57,    344,    0.0,   -1.3,   0.00,   0.00, 1022.9,   97.3, -999.0
21-01-2023, 00:09:08,    344,    0.0,   -1.2,   0.00,   0.00, 1022.9,   97.9, -999.0
21-01-2023, 00:09:17,    344,    0.0,   -1.2,   0.00,   0.00, 1022.9,   98.4, -999.0
21-01-2023, 00:09:27,    344,    0.0,   -1.2,   0.00,   0.00, 1022.9,   98.6, -999.0
21-01-2023, 00:09:37,    344,    0.0,   -1.2,   0.00,   0.00, 1022.9,   98.6, -999.0
21-01-2023, 00:09:48,    343,    0.0,   -1.2,   0.00,   0.00, 1022.9,   98.3, -999.0
21-01-2023, 00:09:57,    344,    0.0,   -1.2,   0.00,   0.00, 1022.9,   97.5, -999.0
21-01-2023, 00:10:07,    344,    0.0,   -1.3,   0.00,   0.00, 1023.0,   97.0, -999.0
21-01-2023, 00:10:17,    343,    0.0,   -1.2,   0.00,   0.00, 1022.9,   96.6, -999.0
21-01-2023, 00:10:27,    343,    0.0,   -1.2,   0.00,   0.00, 1022.9,   95.8, -999.0
21-01-2023, 00:10:37,    343,    0.0,   -1.2,   0.00,   0.00, 1023.0,   95.3, -999.0
21-01-2023, 00:10:47,    343,    0.0,   -1.2,   0.00,   0.00, 1023.0,   94.5, -999.0
21-01-2023, 00:10:57,    343,    0.0,   -1.2,   0.00,   0.00, 1023.0,   93.9, -999.0
21-01-2023, 00:11:07,    344,    0.0,   -1.3,   0.00,   0.00, 1023.0,   93.6, -999.0
21-01-2023, 00:11:17,    343,    0.0,   -1.2,   0.00,   0.00, 1023.0,   93.4, -999.0
21-01-2023, 00:11:27,    343,    0.0,   -1.2,   0.00,   0.00, 1023.0,   93.4, -999.0
21-01-2023, 00:11:37,    343,    0.0,   -1.2,   0.00,   0.00, 1023.0,   93.0, -999.0
21-01-2023, 00:11:47,    344,    0.0,   -1.3,   0.00,   0.00, 1023.0,   92.6, -999.0
21-01-2023, 00:11:57,    343,    0.0,   -1.3,   0.00,   0.00, 1023.0,   92.4, -999.0
21-01-2023, 00:12:07,    343,    0.0,   -1.3,   0.00,   0.00, 1023.0,   92.3, -999.0
21-01-2023, 00:12:17,    343,    0.0,   -1.3,   0.00,   0.00, 1023.0,   92.6, -999.0
21-01-2023, 00:12:27,    344,    0.0,   -1.3,   0.00,   0.00, 1023.0,   92.6, -999.0
21-01-2023, 00:12:37,    343,    0.0,   -1.4,   0.00,   0.00, 1023.0,   92.6, -999.0
21-01-2023, 00:12:47,    344,    0.0,   -1.3,   0.00,   0.00, 1023.0,   92.2, -999.0
21-01-2023, 00:12:57,    344,    0.0,   -1.3,   0.00,   0.00, 1023.0,   91.9, -999.0
21-01-2023, 00:13:07,    344,    0.0,   -1.3,   0.00,   0.00, 1023.0,   91.5, -999.0
21-01-2023, 00:13:17,    343,    0.0,   -1.3,   0.00,   0.00, 1023.0,   91.3, -999.0
21-01-2023, 00:13:27,    344,    0.0,   -1.3,   0.00,   0.00, 1023.0,   91.3, -999.0
21-01-2023, 00:13:37,    343,    0.0,   -1.4,   0.00,   0.00, 1023.0,   91.5, -999.0
21-01-2023, 00:13:47,    344,    0.0,   -1.4,   0.00,   0.00, 1023.0,   91.6, -999.0
21-01-2023, 00:13:57,    343,    0.0,   -1.3,   0.00,   0.00, 1023.0,   91.7, -999.0
21-01-2023, 00:14:07,    344,    0.0,   -1.4,   0.00,   0.00, 1023.0,   92.2, -999.0
21-01-2023, 00:14:17,    343,    0.0,   -1.4,   0.00,   0.00, 1023.0,   93.4, -999.0
21-01-2023, 00:14:27,    344,    0.0,   -1.4,   0.00,   0.00, 1023.0,   94.3, -999.0
21-01-2023, 00:14:37,    343,    0.0,   -1.3,   0.00,   0.00, 1023.0,   94.6, -999.0
21-01-2023, 00:14:47,    343,    0.0,   -1.2,   0.00,   0.00, 1023.0,   94.6, -999.0
21-01-2023, 00:14:57,    344,    0.0,   -1.4,   0.00,   0.00, 1023.0,   94.0, -999.0
21-01-2023, 00:15:07,    344,    0.0,   -1.4,   0.00,   0.00, 1022.9,   93.4, -999.0
21-01-2023, 00:15:17,    343,    0.0,   -1.3,   0.00,   0.00, 1022.9,   92.8, -999.0
21-01-2023, 00:15:26,    344,    0.0,   -1.4,   0.00,   0.00, 1023.0,   92.5, -999.0
21-01-2023, 00:15:37,    343,    0.0,   -1.4,   0.00,   0.00, 1023.0,   92.3, -999.0
21-01-2023, 00:15:47,    344,    0.0,   -1.3,   0.00,   0.00, 1023.0,   92.4, -999.0
21-01-2023, 00:15:57,    344,    0.0,   -1.4,   0.00,   0.00, 1023.0,   92.8, -999.0
21-01-2023, 00:16:07,    344,    0.0,   -1.4,   0.00,   0.00, 1022.9,   93.1, -999.0
21-01-2023, 00:16:17,    343,    0.0,   -1.4,   0.00,   0.00, 1022.9,   94.1, -999.0
21-01-2023, 00:16:27,    343,    0.0,   -1.3,   0.00,   0.00, 1022.9,   95.5, -999.0
21-01-2023, 00:16:36,    343,    0.0,   -1.4,   0.00,   0.00, 1022.9,   95.8, -999.0
21-01-2023, 00:16:47,    344,    0.0,   -1.4,   0.00,   0.00, 1022.9,   95.9, -999.0
21-01-2023, 00:16:57,    343,    0.0,   -1.4,   0.00,   0.00, 1023.0,   95.5, -999.0
21-01-2023, 00:17:06,    344,    0.0,   -1.3,   0.00,   0.00, 1023.0,   95.4, -999.0
21-01-2023, 00:17:16,    344,    0.0,   -1.4,   0.00,   0.00, 1023.0,   96.0, -999.0
21-01-2023, 00:17:27,    344,    0.0,   -1.4,   0.00,   0.00, 1022.9,   96.4, -999.0
21-01-2023, 00:17:37,    344,    0.0,   -1.4,   0.00,   0.00, 1023.0,   97.1, -999.0
21-01-2023, 00:17:46,    343,    0.0,   -1.4,   0.00,   0.00, 1022.9,   98.2, -999.0
21-01-2023, 00:17:56,    344,    0.0,   -1.4,   0.00,   0.00, 1022.9,   98.7, -999.0
21-01-2023, 00:18:07,    344,    0.0,   -1.4,   0.00,   0.00, 1023.0,   98.7, -999.0
21-01-2023, 00:18:16,    344,    0.0,   -1.4,   0.00,   0.00, 1023.0,   98.7, -999.0
21-01-2023, 00:18:26,    344,    0.0,   -1.3,   0.00,   0.00, 1023.0,   98.7, -999.0
21-01-2023, 00:18:36,    344,    0.0,   -1.3,   0.00,   0.00, 1023.0,   98.6, -999.0
21-01-2023, 00:18:47,    344,    0.0,   -1.4,   0.00,   0.00, 1023.0,   98.5, -999.0
21-01-2023, 00:18:56,    344,    0.0,   -1.4,   0.00,   0.00, 1023.0,   98.7, -999.0
21-01-2023, 00:19:06,    344,    0.0,   -1.4,   0.00,   0.00, 1023.0,   98.7, -999.0
21-01-2023, 00:19:16,    344,    0.0,   -1.5,   0.00,   0.00, 1023.0,   98.6, -999.0
21-01-2023, 00:19:26,    344,    0.0,   -1.4,   0.00,   0.00, 1023.0,   98.7, -999.0
21-01-2023, 00:19:36,    344,    0.0,   -1.4,   0.00,   0.00, 1023.0,   98.7, -999.0
21-01-2023, 00:19:46,    344,    0.0,   -1.4,   0.00,   0.00, 1022.9,   98.6, -999.0
21-01-2023, 00:19:56,    343,    0.0,   -1.4,   0.00,   0.00, 1023.0,   98.6, -999.0
21-01-2023, 00:20:06,    343,    0.0,   -1.4,   0.00,   0.00, 1023.0,   98.6, -999.0
21-01-2023, 00:20:16,    344,    0.0,   -1.5,   0.00,   0.00, 1023.0,   98.6, -999.0
21-01-2023, 00:20:26,    344,    0.0,   -1.5,   0.00,   0.00, 1023.0,   98.6, -999.0
21-01-2023, 00:20:36,    343,    0.0,   -1.4,   0.00,   0.00, 1023.0,   98.6, -999.0
21-01-2023, 00:20:46,    343,    0.0,   -1.4,   0.00,   0.00, 1023.0,   98.7, -999.0
21-01-2023, 00:20:56,    344,    0.0,   -1.4,   0.00,   0.00, 1023.0,   98.6, -999.0
21-01-2023, 00:21:06,    344,    0.0,   -1.4,   0.00,   0.00, 1023.1,   98.6, -999.0
21-01-2023, 00:21:16,    344,    0.0,   -1.5,   0.00,   0.00, 1023.0,   98.6, -999.0
21-01-2023, 00:21:26,    343,    0.0,   -1.5,   0.00,   0.00, 1023.0,   98.6, -999.0
21-01-2023, 00:21:36,    344,    0.0,   -1.5,   0.00,   0.00, 1023.1,   98.6, -999.0
21-01-2023, 00:21:46,    344,    0.0,   -1.5,   0.00,   0.00, 1023.0,   98.7, -999.0
21-01-2023, 00:21:56,    344,    0.0,   -1.4,   0.00,   0.00, 1023.0,   98.7, -999.0
21-01-2023, 00:22:06,    344,    0.0,   -1.5,   0.00,   0.00, 1023.0,   98.7, -999.0
21-01-2023, 00:22:16,    344,    0.0,   -1.6,   0.00,   0.00, 1023.0,   98.6, -999.0
21-01-2023, 00:22:26,    344,    0.0,   -1.5,   0.00,   0.00, 1023.0,   98.6, -999.0
21-01-2023, 00:22:36,    344,    0.0,   -1.5,   0.00,   0.00, 1023.0,   98.7, -999.0
21-01-2023, 00:22:46,    344,    0.0,   -1.5,   0.00,   0.00, 1023.0,   98.6, -999.0
21-01-2023, 00:22:56,    344,    0.0,   -1.4,   0.00,   0.00, 1023.0,   98.6, -999.0
21-01-2023, 00:23:06,    344,    0.0,   -1.4,   0.00,   0.00, 1023.1,   98.6, -999.0
21-01-2023, 00:23:16,    344,    0.0,   -1.4,   0.00,   0.00, 1023.1,   98.6, -999.0
21-01-2023, 00:23:26,    344,    0.0,   -1.4,   0.00,   0.00, 1023.0,   98.7, -999.0
21-01-2023, 00:23:36,    344,    0.0,   -1.4,   0.00,   0.00, 1023.0,   98.6, -999.0
21-01-2023, 00:23:46,    344,    0.0,   -1.4,   0.00,   0.00, 1023.0,   98.6, -999.0
21-01-2023, 00:23:56,    344,    0.0,   -1.4,   0.00,   0.00, 1023.1,   98.7, -999.0
21-01-2023, 00:24:06,    344,    0.0,   -1.4,   0.00,   0.00, 1023.0,   98.7, -999.0
21-01-2023, 00:24:16,    344,    0.0,   -1.4,   0.00,   0.00, 1023.0,   98.7, -999.0
21-01-2023, 00:24:26,    344,    0.0,   -1.3,   0.00,   0.00, 1023.0,   98.7, -999.0
21-01-2023, 00:24:36,    344,    0.0,   -1.5,   0.00,   0.00, 1023.0,   98.6, -999.0
21-01-2023, 00:24:46,    344,    0.0,   -1.4,   0.00,   0.00, 1023.0,   98.6, -999.0
21-01-2023, 00:24:56,    344,    0.0,   -1.4,   0.00,   0.00, 1023.0,   98.7, -999.0
21-01-2023, 00:25:05,    343,    0.0,   -1.4,   0.00,   0.00, 1023.0,   98.7, -999.0
21-01-2023, 00:25:16,    344,    0.0,   -1.5,   0.00,   0.00, 1023.1,   98.6, -999.0
21-01-2023, 00:25:26,    344,    0.0,   -1.5,   0.00,   0.00, 1023.1,   98.6, -999.0
21-01-2023, 00:25:35,    344,    0.0,   -1.4,   0.00,   0.00, 1023.1,   98.6, -999.0
21-01-2023, 00:25:46,    344,    0.0,   -1.4,   0.00,   0.00, 1023.1,   98.7, -999.0
21-01-2023, 00:25:56,    344,    0.0,   -1.5,   0.00,   0.00, 1023.1,   98.6, -999.0
21-01-2023, 00:26:06,    343,    0.0,   -1.4,   0.00,   0.00, 1023.0,   98.6, -999.0
21-01-2023, 00:26:15,    344,    0.0,   -1.4,   0.00,   0.00, 1023.0,   98.6, -999.0
21-01-2023, 00:26:26,    344,    0.0,   -1.4,   0.00,   0.00, 1023.1,   98.6, -999.0
21-01-2023, 00:26:36,    344,    0.0,   -1.5,   0.00,   0.00, 1023.1,   98.7, -999.0
21-01-2023, 00:26:45,    344,    0.0,   -1.4,   0.00,   0.00, 1023.0,   98.6, -999.0
21-01-2023, 00:26:55,    344,    0.0,   -1.4,   0.00,   0.00, 1023.0,   98.6, -999.0
21-01-2023, 00:27:06,    343,    0.0,   -1.4,   0.00,   0.00, 1023.0,   98.6, -999.0
21-01-2023, 00:27:15,    344,    0.0,   -1.4,   0.00,   0.00, 1023.1,   98.7, -999.0
21-01-2023, 00:27:25,    344,    0.0,   -1.4,   0.00,   0.00, 1023.0,   98.6, -999.0
21-01-2023, 00:27:35,    344,    0.0,   -1.4,   0.00,   0.00, 1023.1,   98.6, -999.0
21-01-2023, 00:27:46,    344,    0.0,   -1.4,   0.00,   0.00, 1023.1,   98.7, -999.0
21-01-2023, 00:27:55,    344,    0.0,   -1.4,   0.00,   0.00, 1023.1,   98.6, -999.0
21-01-2023, 00:28:05,    344,    0.0,   -1.4,   0.00,   0.00, 1023.1,   98.7, -999.0
21-01-2023, 00:28:16,    344,    0.0,   -1.4,   0.00,   0.00, 1023.1,   98.7, -999.0
21-01-2023, 00:28:25,    343,    0.0,   -1.4,   0.00,   0.00, 1023.1,   98.7, -999.0
21-01-2023, 00:28:35,    344,    0.0,   -1.4,   0.00,   0.00, 1023.1,   98.6, -999.0
21-01-2023, 00:28:45,    343,    0.0,   -1.5,   0.00,   0.00, 1023.1,   98.7, -999.0
21-01-2023, 00:28:55,    343,    0.0,   -1.6,   0.00,   0.00, 1023.1,   98.6, -999.0
21-01-2023, 00:29:05,    343,    0.0,   -1.5,   0.00,   0.00, 1023.1,   98.6, -999.0
21-01-2023, 00:29:15,    344,    0.0,   -1.5,   0.00,   0.00, 1023.1,   98.6, -999.0
21-01-2023, 00:29:25,    344,    0.0,   -1.6,   0.00,   0.00, 1023.1,   98.6, -999.0
21-01-2023, 00:29:35,    344,    0.0,   -1.6,   0.00,   0.00, 1023.1,   98.6, -999.0
21-01-2023, 00:29:45,    343,    0.0,   -1.5,   0.00,   0.00, 1023.1,   98.6, -999.0
21-01-2023, 00:29:55,    344,    0.0,   -1.5,   0.00,   0.00, 1023.1,   98.6, -999.0
21-01-2023, 00:30:05,    343,    0.0,   -1.5,   0.00,   0.00, 1023.1,   98.6, -999.0
21-01-2023, 00:30:15,    344,    0.0,   -1.5,   0.00,   0.00, 1023.1,   98.7, -999.0
21-01-2023, 00:30:25,    343,    0.0,   -1.5,   0.00,   0.00, 1023.1,   98.6, -999.0
21-01-2023, 00:30:35,    344,    0.0,   -1.6,   0.00,   0.00, 1023.1,   98.7, -999.0
21-01-2023, 00:30:45,    343,    0.0,   -1.5,   0.00,   0.00, 1023.1,   98.6, -999.0
21-01-2023, 00:30:55,    343,    0.0,   -1.5,   0.00,   0.00, 1023.1,   98.6, -999.0
21-01-2023, 00:31:05,    344,    0.0,   -1.6,   0.00,   0.00, 1023.1,   98.7, -999.0
21-01-2023, 00:31:15,    344,    0.0,   -1.5,   0.00,   0.00, 1023.1,   98.7, -999.0
21-01-2023, 00:31:25,    343,    0.0,   -1.5,   0.00,   0.00, 1023.1,   98.6, -999.0
21-01-2023, 00:31:35,    344,    0.0,   -1.5,   0.00,   0.00, 1023.1,   98.7, -999.0
21-01-2023, 00:31:45,    344,    0.0,   -1.5,   0.00,   0.00, 1023.1,   98.6, -999.0
21-01-2023, 00:31:55,    344,    0.0,   -1.5,   0.00,   0.00, 1023.1,   98.7, -999.0
21-01-2023, 00:32:05,    343,    0.0,   -1.5,   0.00,   0.00, 1023.1,   98.7, -999.0
21-01-2023, 00:32:15,    344,    0.0,   -1.4,   0.00,   0.00, 1023.1,   98.7, -999.0
21-01-2023, 00:32:25,    344,    0.0,   -1.5,   0.00,   0.00, 1023.1,   98.6, -999.0
21-01-2023, 00:32:35,    344,    0.0,   -1.5,   0.00,   0.00, 1023.1,   98.6, -999.0
21-01-2023, 00:32:45,    344,    0.0,   -1.5,   0.00,   0.00, 1023.1,   98.6, -999.0
21-01-2023, 00:32:55,    344,    0.0,   -1.5,   0.00,   0.00, 1023.1,   98.6, -999.0
21-01-2023, 00:33:05,    344,    0.0,   -1.5,   0.00,   0.00, 1023.1,   98.7, -999.0
21-01-2023, 00:33:15,    344,    0.0,   -1.5,   0.00,   0.00, 1023.1,   98.7, -999.0
21-01-2023, 00:33:25,    344,    0.0,   -1.6,   0.00,   0.00, 1023.2,   98.7, -999.0
21-01-2023, 00:33:35,    344,    0.0,   -1.6,   0.00,   0.00, 1023.1,   98.7, -999.0
21-01-2023, 00:33:45,    344,    0.0,   -1.6,   0.00,   0.00, 1023.1,   98.6, -999.0
21-01-2023, 00:33:55,    343,    0.0,   -1.6,   0.00,   0.00, 1023.1,   98.6, -999.0
21-01-2023, 00:34:05,    344,    0.0,   -1.6,   0.00,   0.00, 1023.2,   98.7, -999.0
21-01-2023, 00:34:15,    344,    0.0,   -1.6,   0.00,   0.00, 1023.1,   98.6, -999.0
21-01-2023, 00:34:25,    344,    0.0,   -1.5,   0.00,   0.00, 1023.2,   98.6, -999.0
21-01-2023, 00:34:34,    344,    0.0,   -1.5,   0.00,   0.00, 1023.1,   98.7, -999.0
21-01-2023, 00:34:45,    343,    0.0,   -1.5,   0.00,   0.00, 1023.1,   98.6, -999.0
21-01-2023, 00:34:55,    344,    0.0,   -1.6,   0.00,   0.00, 1023.1,   98.6, -999.0
21-01-2023, 00:35:04,    344,    0.0,   -1.5,   0.00,   0.00, 1023.1,   98.6, -999.0
21-01-2023, 00:35:15,    344,    0.0,   -1.5,   0.00,   0.00, 1023.1,   98.6, -999.0
21-01-2023, 00:35:25,    344,    0.0,   -1.5,   0.00,   0.00, 1023.1,   98.6, -999.0
21-01-2023, 00:35:35,    344,    0.0,   -1.7,   0.00,   0.00, 1023.1,   98.6, -999.0
21-01-2023, 00:35:44,    344,    0.0,   -1.5,   0.00,   0.00, 1023.1,   98.7, -999.0
21-01-2023, 00:35:55,    344,    0.0,   -1.5,   0.00,   0.00, 1023.1,   98.6, -999.0
21-01-2023, 00:36:05,    344,    0.0,   -1.5,   0.00,   0.00, 1023.1,   98.7, -999.0
21-01-2023, 00:36:14,    344,    0.0,   -1.5,   0.00,   0.00, 1023.1,   98.6, -999.0
21-01-2023, 00:36:24,    344,    0.0,   -1.5,   0.00,   0.00, 1023.1,   98.6, -999.0
21-01-2023, 00:36:35,    344,    0.0,   -1.5,   0.00,   0.00, 1023.2,   98.6, -999.0
21-01-2023, 00:36:45,    344,    0.0,   -1.6,   0.00,   0.00, 1023.1,   98.6, -999.0
21-01-2023, 00:36:54,    344,    0.0,   -1.7,   0.00,   0.00, 1023.1,   98.6, -999.0
21-01-2023, 00:37:04,    344,    0.0,   -1.6,   0.00,   0.00, 1023.1,   98.7, -999.0
21-01-2023, 00:37:15,    343,    0.0,   -1.5,   0.00,   0.00, 1023.1,   98.7, -999.0
21-01-2023, 00:37:24,    344,    0.0,   -1.5,   0.00,   0.00, 1023.1,   98.6, -999.0
21-01-2023, 00:37:34,    343,    0.0,   -1.5,   0.00,   0.00, 1023.2,   98.7, -999.0
21-01-2023, 00:37:44,    344,    0.0,   -1.5,   0.00,   0.00, 1023.2,   98.6, -999.0
21-01-2023, 00:37:54,    344,    0.0,   -1.5,   0.00,   0.00, 1023.2,   98.7, -999.0
21-01-2023, 00:38:04,    344,    0.0,   -1.5,   0.00,   0.00, 1023.2,   98.6, -999.0
21-01-2023, 00:38:14,    344,    0.0,   -1.5,   0.00,   0.00, 1023.1,   98.6, -999.0
21-01-2023, 00:38:24,    344,    0.0,   -1.5,   0.00,   0.00, 1023.1,   98.6, -999.0
21-01-2023, 00:38:34,    343,    0.0,   -1.5,   0.00,   0.00, 1023.1,   98.6, -999.0
21-01-2023, 00:38:44,    344,    0.0,   -1.5,   0.00,   0.00, 1023.1,   98.7, -999.0
21-01-2023, 00:38:54,    344,    0.0,   -1.5,   0.00,   0.00, 1023.1,   98.7, -999.0
21-01-2023, 00:39:04,    344,    0.0,   -1.5,   0.00,   0.00, 1023.1,   98.6, -999.0
21-01-2023, 00:39:14,    344,    0.0,   -1.6,   0.00,   0.00, 1023.1,   98.6, -999.0
21-01-2023, 00:39:24,    344,    0.0,   -1.6,   0.00,   0.00, 1023.1,   98.6, -999.0
21-01-2023, 00:39:34,    344,    0.0,   -1.7,   0.00,   0.00, 1023.1,   98.6, -999.0
21-01-2023, 00:39:44,    344,    0.0,   -1.6,   0.00,   0.00, 1023.2,   98.7, -999.0
21-01-2023, 00:39:54,    344,    0.0,   -1.7,   0.00,   0.00, 1023.2,   98.6, -999.0
21-01-2023, 00:40:04,    344,    0.0,   -1.6,   0.00,   0.00, 1023.2,   98.6, -999.0
21-01-2023, 00:40:14,    343,    0.0,   -1.6,   0.00,   0.00, 1023.2,   98.6, -999.0
21-01-2023, 00:40:24,    344,    0.0,   -1.6,   0.00,   0.00, 1023.2,   98.7, -999.0
21-01-2023, 00:40:34,    343,    0.0,   -1.6,   0.00,   0.00, 1023.2,   98.7, -999.0
21-01-2023, 00:40:44,    344,    0.0,   -1.5,   0.00,   0.00, 1023.2,   98.6, -999.0
21-01-2023, 00:40:54,    344,    0.0,   -1.5,   0.00,   0.00, 1023.2,   89.1, -999.0
21-01-2023, 00:41:04,    344,    0.0,   -1.5,   0.00,   0.00, 1023.2,    0.1, -999.0
21-01-2023, 00:41:14,    344,    0.0,   -1.6,   0.00,   0.00, 1023.2,    0.2, -999.0
21-01-2023, 00:41:24,    344,    0.0,   -1.5,   0.00,   0.00, 1023.2,    0.1, -999.0
21-01-2023, 00:41:34,    344,    0.0,   -1.5,   0.00,   0.00, 1023.3,    0.1, -999.0
21-01-2023, 00:41:44,    344,    0.0,   -1.5,   0.00,   0.00, 1023.3,    0.1, -999.0
21-01-2023, 00:41:54,    344,    0.0,   -1.5,   0.00,   0.00, 1023.2,    0.2, -999.0
21-01-2023, 00:42:04,    343,    0.0,   -1.6,   0.00,   0.00, 1023.2,    0.1, -999.0
21-01-2023, 00:42:14,    344,    0.0,   -1.5,   0.00,   0.00, 1023.2,    0.0, -999.0
21-01-2023, 00:42:24,    344,    0.0,   -1.5,   0.00,   0.00, 1023.2,    0.0, -999.0
21-01-2023, 00:42:34,    344,    0.0,   -1.5,   0.00,   0.00, 1023.2,    0.1, -999.0
21-01-2023, 00:42:44,    344,    0.0,   -1.5,   0.00,   0.00, 1023.2,    0.0, -999.0
21-01-2023, 00:42:54,    344,    0.0,   -1.6,   0.00,   0.00, 1023.3,    0.1, -999.0
21-01-2023, 00:43:04,    343,    0.0,   -1.6,   0.00,   0.00, 1023.3,    0.2, -999.0
21-01-2023, 00:43:14,    344,    0.0,   -1.6,   0.00,   0.00, 1023.3,    0.1, -999.0
21-01-2023, 00:43:24,    343,    0.0,   -1.5,   0.00,   0.00, 1023.3,    0.2, -999.0
21-01-2023, 00:43:33,    344,    0.0,   -1.5,   0.00,   0.00, 1023.3,    0.1, -999.0
21-01-2023, 00:43:44,    344,    0.0,   -1.6,   0.00,   0.00, 1023.3,    0.2, -999.0
21-01-2023, 00:43:54,    344,    0.0,   -1.6,   0.00,   0.00, 1023.3,    0.1, -999.0
21-01-2023, 00:44:04,    344,    0.0,   -1.6,   0.00,   0.00, 1023.3,    0.2, -999.0
21-01-2023, 00:44:13,    344,    0.0,   -1.5,   0.00,   0.00, 1023.3,    0.1, -999.0
21-01-2023, 00:44:24,    344,    0.0,   -1.6,   0.00,   0.00, 1023.3,    0.0, -999.0
21-01-2023, 00:44:34,    344,    0.0,   -1.5,   0.00,   0.00, 1023.3,    0.2, -999.0
21-01-2023, 00:44:43,    344,    0.0,   -1.5,   0.00,   0.00, 1023.3,    0.1, -999.0
21-01-2023, 00:44:53,    344,    0.0,   -1.5,   0.00,   0.00, 1023.3,    0.1, -999.0
21-01-2023, 00:45:04,    344,    0.0,   -1.6,   0.00,   0.00, 1023.3,    0.2, -999.0
21-01-2023, 00:45:13,    343,    0.0,   -1.5,   0.00,   0.00, 1023.3,    0.1, -999.0
21-01-2023, 00:45:23,    343,    0.0,   -1.5,   0.00,   0.00, 1023.3,    0.1, -999.0
21-01-2023, 00:45:33,    344,    0.0,   -1.6,   0.00,   0.00, 1023.3,    0.2, -999.0
21-01-2023, 00:45:44,    344,    0.0,   -1.5,   0.00,   0.00, 1023.3,    0.1, -999.0
21-01-2023, 00:45:53,    344,    0.0,   -1.5,   0.00,   0.00, 1023.3,    0.1, -999.0
21-01-2023, 00:46:03,    344,    0.0,   -1.5,   0.00,   0.00, 1023.3,    0.1, -999.0
21-01-2023, 00:46:13,    342,    0.0,   -1.5,   0.00,   0.00, 1023.3,    0.1, -999.0
21-01-2023, 00:46:24,    344,    0.0,   -1.5,   0.00,   0.00, 1023.3,    0.1, -999.0
21-01-2023, 00:46:33,    344,    0.0,   -1.5,   0.00,   0.00, 1023.3,    0.1, -999.0
21-01-2023, 00:46:43,    343,    0.0,   -1.5,   0.00,   0.00, 1023.3,    0.2, -999.0
21-01-2023, 00:46:54,    344,    0.0,   -1.5,   0.00,   0.00, 1023.3,    0.0, -999.0